User: anonymous   Login
Location: Unspecified
(0.0000°N, 0.0000°E)
Time: 22:51:02
(UTC+00:00)
Language:

OBJECT BE - Orbit

View from above orbital plane
View from above orbital plane
View from above satellite
View from above satellite

Ground track
Ground track

The orbit data is extracted from the following two-line orbital elements,

1 42000U 17008BE  17113.92530178 +.00004030 +00000-0 +17912-3 0  9990
2 42000 097.5015 175.4226 0010108 049.5070 310.7046 15.22054995009605
Epoch (UTC): 23 April 2017 22:12:26
Eccentricity: 0.0010108
inclination: 97.5015°
perigee height: 492 km
apogee height: 506 km
right ascension of ascending node: 175.4226°
argument of perigee: 49.5070°
revolutions per day: 15.22054995
mean anomaly at epoch: 310.7046°
orbit number at epoch: 960

The dashed part of the orbit path shows where the satellite is in the earth's shadow,  

DLR